| time (UTC) | temp F | wind direction | speed MPH | gust MPH | rain 1hr in | rain 24hr in | rain mn in | humidity % | barometer mb |
| 20260902204503 | 70 | 185 | 2.0 | 6.0 | 0.00 | 0.00 | 0.00 | 57 | 1018.8 |
| 20260902203002 | 70 | 193 | 1.0 | 5.0 | 0.00 | 0.00 | 0.00 | 59 | 1019.0 |
| 20260902201504 | 69 | 221 | 0.0 | 6.0 | 0.00 | 0.00 | 0.00 | 60 | 1019.1 |
| 20260902200003 | 69 | 188 | 2.0 | 5.0 | 0.00 | 0.00 | 0.00 | 60 | 1019.3 |
| 20260902194503 | 69 | 149 | 2.0 | 4.0 | 0.00 | 0.00 | 0.00 | 59 | 1019.3 |
| 20260902193002 | 69 | 198 | 1.0 | 5.0 | 0.00 | 0.00 | 0.00 | 59 | 1019.4 |
| 20260902191505 | 69 | 220 | 1.0 | 7.0 | 0.00 | 0.00 | 0.00 | 60 | 1019.5 |
| 20260902190003 | 69 | 227 | 1.0 | 5.0 | 0.00 | 0.00 | 0.00 | 58 | 1019.7 |
| 20260902184502 | 69 | 188 | 2.0 | 4.0 | 0.00 | 0.00 | 0.00 | 59 | 1019.6 |
| 20260902183003 | 67 | 85 | 1.0 | 4.0 | 0.00 | 0.00 | 0.00 | 62 | 1019.5 |
| 20260902181502 | 67 | 77 | 1.0 | 5.0 | 0.00 | 0.00 | 0.00 | 61 | 1019.5 |
| 20260902180005 | 67 | 122 | 1.0 | 4.0 | 0.00 | 0.00 | 0.00 | 61 | 1019.6 |
| 20260902174505 | 67 | 145 | 1.0 | 6.0 | 0.00 | 0.00 | 0.00 | 62 | 1019.6 |
| 20260902173002 | 66 | 157 | 2.0 | 4.0 | 0.00 | 0.00 | 0.00 | 62 | 1019.6 |
| 20260902171503 | 65 | 191 | 1.0 | 3.0 | 0.00 | 0.00 | 0.00 | 63 | 1019.4 |
| 20260902170002 | 65 | 143 | 1.0 | 4.0 | 0.00 | 0.00 | 0.00 | 63 | 1019.3 |
| 20260902164506 | 64 | 166 | 1.0 | 6.0 | 0.00 | 0.00 | 0.00 | 63 | 1019.3 |
| 20260902163002 | 64 | 62 | 3.0 | 7.0 | 0.00 | 0.00 | 0.00 | 60 | 1019.1 |
| 20260902161503 | 64 | 60 | 2.0 | 6.0 | 0.00 | 0.00 | 0.00 | 61 | 1019.1 |
| 20260902160002 | 63 | 116 | 2.0 | 8.0 | 0.00 | 0.00 | 0.00 | 62 | 1019.3 |
| 20260902154502 | 61 | 138 | 1.0 | 3.0 | 0.00 | 0.00 | 0.00 | 68 | 1019.3 |
| 20260902153002 | 58 | 37 | 1.0 | 6.0 | 0.00 | 0.00 | 0.00 | 71 | 1019.2 |
| 20260902151502 | 57 | 60 | 1.0 | 4.0 | 0.00 | 0.00 | 0.00 | 73 | 1019.1 |
| 20260902150003 | 57 | 68 | 1.0 | 3.0 | 0.00 | 0.00 | 0.00 | 74 | 1019.0 |
| 20260902144502 | 56 | 37 | 1.0 | 4.0 | 0.00 | 0.00 | 0.00 | 76 | 1018.8 |
| 20260902143001 | 56 | 93 | 2.0 | 6.0 | 0.00 | 0.00 | 0.00 | 77 | 1018.7 |
| 20260902141505 | 55 | 54 | 0.0 | 2.0 | 0.00 | 0.00 | 0.00 | 79 | 1018.8 |
| 20260902140003 | 55 | 68 | 1.0 | 4.0 | 0.00 | 0.00 | 0.00 | 79 | 1018.7 |
| 20260902134504 | 55 | 28 | 2.0 | 4.0 | 0.00 | 0.00 | 0.00 | 80 | 1018.7 |
| 20260902133003 | 55 | 51 | 2.0 | 7.0 | 0.00 | 0.00 | 0.00 | 80 | 1018.4 |
| 20260902131502 | 55 | 36 | 0.0 | 2.0 | 0.00 | 0.00 | 0.00 | 81 | 1018.2 |
| 20260902130002 | 55 | 25 | 0.0 | 2.0 | 0.00 | 0.00 | 0.00 | 81 | 1018.3 |
| 20260902124503 | 55 | 63 | 0.0 | 3.0 | 0.00 | 0.00 | 0.00 | 80 | 1018.3 |
| 20260902123001 | 55 | 60 | 1.0 | 3.0 | 0.00 | 0.00 | 0.00 | 81 | 1018.1 |
| 20260902121504 | 55 | 33 | 0.0 | 3.0 | 0.00 | 0.00 | 0.00 | 80 | 1018.2 |
| 20260902120002 | 55 | 19 | 1.0 | 3.0 | 0.00 | 0.00 | 0.00 | 80 | 1018.2 |
| 20260902114502 | 55 | 42 | 1.0 | 3.0 | 0.00 | 0.00 | 0.00 | 80 | 1018.2 |
| 20260902113108 | 55 | 61 | 0.0 | 3.0 | 0.00 | 0.00 | 0.00 | 80 | 1018.1 |
| 20260902111604 | 55 | 52 | 1.0 | 3.0 | 0.00 | 0.00 | 0.00 | 81 | 1018.1 |
| 20260902110100 | 55 | 46 | 1.0 | 3.0 | 0.00 | 0.00 | 0.00 | 80 | 1018.2 |
| 20260902103007 | 55 | 55 | 0.0 | 3.0 | 0.00 | 0.00 | 0.00 | 79 | 1018.3 |
| 20260902101501 | 55 | 55 | 0.0 | 3.0 | 0.00 | 0.00 | 0.00 | 79 | 1018.6 |
| 20260902100002 | 56 | 47 | 0.0 | 4.0 | 0.00 | 0.00 | 0.00 | 79 | 1018.5 |
| 20260902094503 | 56 | 36 | 1.0 | 3.0 | 0.00 | 0.00 | 0.00 | 78 | 1018.6 |
| 20260902093117 | 56 | 44 | 0.0 | 3.0 | 0.00 | 0.00 | 0.00 | 78 | 1018.6 |
| 20260902091502 | 56 | 43 | 1.0 | 2.0 | 0.00 | 0.00 | 0.00 | 78 | 1018.7 |
| 20260902090002 | 56 | 30 | 0.0 | 4.0 | 0.00 | 0.00 | 0.00 | 78 | 1018.5 |
| 20260902084508 | 56 | 31 | 1.0 | 3.0 | 0.00 | 0.00 | 0.00 | 77 | 1018.5 |
| 20260902083002 | 56 | 98 | 0.0 | 4.0 | 0.00 | 0.00 | 0.00 | 77 | 1018.5 |
| 20260902081503 | 56 | 49 | 1.0 | 3.0 | 0.00 | 0.00 | 0.00 | 76 | 1018.3 |
| 20260902080002 | 56 | 68 | 1.0 | 3.0 | 0.00 | 0.00 | 0.00 | 75 | 1018.2 |
| 20260902074502 | 57 | 63 | 1.0 | 3.0 | 0.00 | 0.00 | 0.00 | 75 | 1018.1 |
| 20260902073003 | 57 | 87 | 1.0 | 3.0 | 0.00 | 0.00 | 0.00 | 74 | 1018.1 |
| 20260902071506 | 58 | 69 | 2.0 | 4.0 | 0.00 | 0.00 | 0.00 | 74 | 1018.1 |
| 20260902070003 | 58 | 114 | 1.0 | 4.0 | 0.00 | 0.00 | 0.00 | 73 | 1018.1 |
| 20260902064501 | 58 | 51 | 2.0 | 6.0 | 0.00 | 0.00 | 0.00 | 73 | 1018.2 |
| 20260902063002 | 58 | 88 | 1.0 | 4.0 | 0.00 | 0.00 | 0.00 | 72 | 1018.3 |
| 20260902061507 | 59 | 144 | 1.0 | 3.0 | 0.00 | 0.00 | 0.00 | 71 | 1018.4 |
| 20260902060103 | 59 | 37 | 1.0 | 6.0 | 0.00 | 0.00 | 0.00 | 70 | 1018.4 |
| 20260902054505 | 59 | 63 | 1.0 | 6.0 | 0.00 | 0.00 | 0.00 | 69 | 1018.3 |
| 20260902053002 | 60 | 81 | 1.0 | 3.0 | 0.00 | 0.00 | 0.00 | 69 | 1018.3 |
| 20260902051502 | 60 | 60 | 1.0 | 4.0 | 0.00 | 0.00 | 0.00 | 68 | 1018.3 |
| 20260902044502 | 60 | 138 | 1.0 | 2.0 | 0.00 | 0.00 | 0.00 | 64 | 1018.2 |
| 20260902043005 | 61 | 147 | 0.0 | 0.0 | 0.00 | 0.00 | 0.00 | 63 | 1018.1 |
| 20260902041502 | 61 | 141 | 0.0 | 1.0 | 0.00 | 0.00 | 0.00 | 62 | 1017.8 |
| 20260902040006 | 62 | 173 | 0.0 | 1.0 | 0.00 | 0.00 | 0.00 | 60 | 1017.6 |
| 20260902034616 | 62 | 160 | 0.0 | 2.0 | 0.00 | 0.00 | 0.00 | 59 | 1017.2 |
| 20260902033003 | 63 | 168 | 1.0 | 3.0 | 0.00 | 0.00 | 0.00 | 58 | 1017.2 |
| 20260902031503 | 64 | 157 | 0.0 | 3.0 | 0.00 | 0.00 | 0.00 | 57 | 1016.7 |
| 20260902024502 | 65 | 183 | 0.0 | 3.0 | 0.00 | 0.00 | 0.00 | 54 | 1016.2 |
| 20260902023002 | 66 | 206 | 1.0 | 5.0 | 0.00 | 0.00 | 0.00 | 52 | 1016.2 |
| 20260902021507 | 67 | 175 | 1.0 | 3.0 | 0.00 | 0.00 | 0.00 | 49 | 1015.9 |
| 20260902020003 | 68 | 170 | 0.0 | 3.0 | 0.00 | 0.00 | 0.00 | 48 | 1016.0 |
| 20260902014503 | 69 | 187 | 1.0 | 5.0 | 0.00 | 0.00 | 0.00 | 45 | 1015.8 |
| 20260902013003 | 69 | 143 | 1.0 | 3.0 | 0.00 | 0.00 | 0.00 | 45 | 1015.8 |
| 20260902011503 | 70 | 135 | 2.0 | 4.0 | 0.00 | 0.00 | 0.00 | 44 | 1015.8 |
| 20260902010105 | 70 | 183 | 1.0 | 3.0 | 0.00 | 0.00 | 0.00 | 42 | 1015.9 |
| 20260902004501 | 71 | 218 | 1.0 | 6.0 | 0.00 | 0.00 | 0.00 | 43 | 1015.8 |
| 20260902003104 | 71 | 100 | 1.0 | 4.0 | 0.00 | 0.00 | 0.00 | 44 | 1015.9 |
| 20260902001502 | 72 | 212 | 2.0 | 6.0 | 0.00 | 0.00 | 0.00 | 45 | 1015.9 |
| 20260902000006 | 71 | 172 | 1.0 | 7.0 | 0.00 | 0.00 | 0.00 | 45 | 1016.0 |
| 20260901234503 | 72 | 191 | 3.0 | 7.0 | 0.00 | 0.00 | 0.00 | 44 | 1016.0 |
| 20260901233002 | 72 | 148 | 1.0 | 6.0 | 0.00 | 0.00 | 0.00 | 45 | 1016.1 |
| 20260901231504 | 72 | 122 | 1.0 | 5.0 | 0.00 | 0.00 | 0.00 | 45 | 1016.1 |
| 20260901230006 | 72 | 21 | 1.0 | 4.0 | 0.00 | 0.00 | 0.00 | 45 | 1016.3 |
| 20260901224502 | 73 | 185 | 2.0 | 5.0 | 0.00 | 0.00 | 0.00 | 43 | 1016.4 |
| 20260901223003 | 72 | 181 | 2.0 | 5.0 | 0.00 | 0.00 | 0.00 | 45 | 1016.5 |
| 20260901221504 | 73 | 203 | 1.0 | 7.0 | 0.00 | 0.00 | 0.00 | 46 | 1016.6 |
| 20260901220010 | 72 | 196 | 2.0 | 5.0 | 0.00 | 0.00 | 0.00 | 47 | 1016.6 |
| 20260901214501 | 71 | 185 | 2.0 | 7.0 | 0.00 | 0.00 | 0.00 | 49 | 1016.7 |
| 20260901213001 | 71 | 224 | 2.0 | 5.0 | 0.00 | 0.00 | 0.00 | 48 | 1016.6 |
| 20260901211503 | 70 | 158 | 1.0 | 9.0 | 0.00 | 0.00 | 0.00 | 50 | 1016.8 |
| 20260901210002 | 70 | 172 | 3.0 | 7.0 | 0.00 | 0.00 | 0.00 | 52 | 1017.1 |